一网星座-0277星 (ONEWEB-0277 )

导读 | 星芒AI

ONEWEB-0277 是 OneWeb 卫星星座计划中的一颗低轨通信卫星,旨在为全球提供高速互联网服务。该卫星采用模块化设计,搭载先进通信载荷,支持高带宽数据传输。作为 OneWeb 低轨卫星网络的一部分,它运行在约 1200 公里的近地轨道,与其他卫星协同工作,实现全球覆盖。该计划致力于填补数字鸿沟,特别是在偏远和农村地区。ONEWEB-0277 的发射和运行标志着 OneWeb 在构建全球宽带网络方面的重要进展。

基本信息
目录编号:
48995
目录名称:
ONEWEB-0277
国际标识:
2021-060AE
轨道中心:
EARTH
卫星名称:
一网星座-0277星
卫星全名:
一网星座-0277星 (ONEWEB-0277 )
卫星状态:
在轨 (已飞行1628 天)
发射日期:
2021-07-01 UTC
国别 :
英国 (GB)
星等 :
--
轨道信息
数据来源 国际轨道数据
星历时间: 2025-12-15T03:56:13+0800
23小时前
查看轨道信息
半长轴: 7575.92km
偏心率: 0.0001834
轨道倾角: 87.903°
近地点辐角 74.814°
升交点赤经 265.508°
平近点角 285.319°
近地点: 1196.395km
远地点: 1199.175km
周期: 109.374分钟
每日圈数: 13.165876
详细信息
平衡模式:
三轴稳定
覆盖范围:
全球
运营商:
一网卫星公司
运营商所在国:
英国
制造商(研发单位):
一网卫星公司
制造商所在国:
英国
使用方式:
暂无
卫星简介
OneWeb卫星网络由648颗重约125公斤的微型卫星组成,运行在1200公里的轨道上。 每颗卫星都能够提供至少每秒8千兆位的吞吐量,以使用其高吞吐量的Ku频段有效载荷为家庭和移动平台提供互联网接入。该卫星仍在工作。
2D轨道图
3D轨道图
轨道高度分析图
轨道倾角分析图
轨道综合分析图
查看轨道综合分析图